SCP
-0 2 2 1 2 1 1 1 0 0 0 0 0 0 0 0 0 0 0 1 1 2 2 2 1 0 0 0 0 0 0 0 0 0 0 0 0 0 0 0 0 0 0
6 3 3 2 2 1 1 1 1 1 1 0 0 0 0 0 0 0 0 1 1 2 2 2 1 1 0 0 0 0 0 0 0 0 0 0 0 0 0 0 0 0 0
4 5 5 4 3 3 2 2 1 1 1 1 1 0 0 0 0 0 0 0 1 2 2 2 2 1 0 0 0 0 0 0 0 0 0 0 0 0 0 0 0 0 0
2 5 4 2 2 2 2 2 2 1 1 1 0 0 0 0 0 0 0 0 1 3 3 2 2 1 1 0 0 0 0 0 0 0 0 0 0 0 0 0 0 0 0
2 1 1 3 4 3 2 3 3 2 2 1 1 0 0 0 0 0 0 0 0 3 4 3 2 1 1 0 0 0 0 0 0 0 0 0 0 0 0 0 0 0 0
4 1 3 4 4 3 2 3 2 1 2 1 1 1 1 0 -0 0 0 0 0 5 5 3 3 1 0 0 0 0 0 0 0 0 0 0 0 0 0 0 0 0 0
3 6 4 6 5 3 2 2 1 1 1 1 1 1 1 1 1 0 0 0 1 7 5 2 1 1 1 1 0 0 0 0 0 0 0 0 0 0 0 0 0 0 0
5 6 6 3 3 4 2 2 2 2 1 1 0 0 0 0 0 1 1 1 1 0 1 1 1 0 1 1 0 0 0 0 0 0 0 0 0 0 0 0 0 0 0
1 0 1 3 3 4 1 2 2 2 1 1 1 0 0 0 -0 0 1 0 0 1 1 0 0 0 0 0 0 0 0 0 0 0 0 0 0 0 0 0 0 0 0
0 0 0 2 3 1 1 2 1 1 1 0 0 0 0 0 0 0 -0 -0 0 1 1 0 0 0 0 0 0 0 0 0 0 0 0 0 0 0 0 0 0 0 0
0 0 0 0 0 0 0 0 0 0 0 0 0 0 0 0 0 0 0 0 0 0 0 0 0 0 0 0 0 0 0 0 0 0 0 0 0 0 0 0 0 0 0
0 0 0 0 0 0 0 0 0 0 0 1 1 1 1 0 0 0 0 0 0 0 0 0 0 0 0 0 0 0 0 0 0 0 0 0 0 0 0 0 0 0 0
0 0 1 0 0 0 0 0 0 1 1 1 1 1 1 1 0 0 0 0 -0 0 0 0 0 0 0 0 0 0 0 0 0 0 0 0 0 0 0 0 0 0 0
0 1 0 0 0 0 1 1 1 1 1 1 1 1 1 0 0 0 0 0 -0 0 0 0 0 0 0 0 0 0 0 0 0 0 0 0 0 0 0 0 0 0 0
1 1 0 0 0 0 0 0 1 0 0 0 0 0 0 0 0 0 0 0 0 0 0 0 0 0 0 0 0 0 0 0 0 0 0 0 0 0 0 0 0 0 0
0 0 -0 0 0 0 0 0 0 0 0 0 0 0 0 0 0 0 0 0 0 0 0 0 0 0 0 0 0 0 0 0 0 0 0 0 0 0 0 0 0 0 0
0 0 0 0 0 0 0 0 0 0 0 0 0 0 0 0 0 0 0 0 0 0 0 0 0 0 0 0 0 0 0 0 0 0 0 0 0 0 0 0 0 0 0
0 0 0 0 0 0 0 0 0 0 0 0 0 0 0 0 0 0 0 0 0 0 0 0 0 0 0 0 0 0 0 0 0 0 0 0 0 0 0 0 0 0 0
0 0 0 0 0 0 0 0 0 0 0 0 0 0 0 0 0 0 0 0 0 0 0 0 0 0 0 0 0 0 0 0 0 0 0 0 0 0 0 0 0 0 0
0 0 0 0 0 0 0 0 0 0 0 0 0 0 0 0 0 0 0 0 0 0 0 0 0 0 0 0 0 0 -0 0 0 0 0 0 -0 0 0 0 0 -0 0
0 0 0 0 0 0 0 0 0 0 0 0 0 0 0 0 0 0 0 0 0 0 0 0 0 0 0 0 0 0 0 0 0 0 0 0 0 -0 0 0 0 -0 -0
0 0 0 0 0 0 0 0 0 0 0 0 0 0 0 0 0 0 0 0 0 0 0 0 0 0 0 0 0 0 0 0 0 0 0 0 0 0 0 0 -0 -0 -0
0 0 0 0 0 0 0 0 0 0 0 0 0 0 0 0 0 0 0 0 0 0 0 0 0 0 0 0 0 0 0 0 0 0 0 0 0 0 0 0 -0 -0 -0
0 0 0 0 0 0 0 0 0 0 0 0 0 0 -0 -0 -0 0 0 0 0 0 0 0 0 0 0 0 0 0 0 0 0 0 0 0 0 0 0 0 -0 -0 -0
0 0 0 0 0 0 0 0 0 -0 -0 -0 -0 -0 -0 -0 -0 -0 -0 0 0 0 0 0 0 0 0 0 0 0 0 0 0 0 0 0 -0 0 0 -0 -0 -0 -0
0 0 -0 -0 -0 0 0 -0 -0 -0 -0 0 0 -0 -0 -0 0 -0 -0 -0 0 -0 -0 -0 0 -0 0 0 -0 -0 -0 0 0 0 0 0 -0 -0 -0 0 0 0 0
Wind_Speed_500mb
24 40 31 35 27 29 29 32 28 39 39 45 41 38 48 51 52 47 49 49 49 49 46 43 43 49 46 41 36 32 31 29 28 29 28 29 32 36 39 44 51 53 38
37 30 48 43 37 37 36 43 44 43 35 40 46 50 51 53 56 54 54 55 56 56 54 48 49 53 51 44 39 36 35 32 31 33 31 31 34 38 42 50 55 49 38
25 36 37 42 42 38 44 40 46 53 50 42 46 47 49 54 62 61 59 56 63 60 58 54 53 55 54 47 44 41 40 36 34 34 34 34 36 40 46 54 54 38 32
55 35 37 30 34 39 39 40 46 46 50 63 67 65 52 59 55 61 61 65 61 66 66 61 58 58 57 52 47 46 44 40 36 36 36 36 38 43 51 56 49 35 34
44 24 23 28 35 34 31 39 42 41 48 53 53 65 69 66 64 62 71 71 70 77 76 71 64 59 61 57 50 49 43 42 39 38 34 38 41 46 53 53 41 34 38
51 39 33 35 49 46 46 44 49 44 47 50 55 59 64 77 78 74 70 64 83 81 75 64 56 58 64 60 50 49 40 47 47 40 39 40 43 49 53 47 33 38 40
40 42 38 37 47 48 41 41 50 45 50 53 56 62 71 73 75 83 79 69 45 83 69 55 68 47 75 59 49 48 46 53 47 39 41 42 46 50 50 41 32 36 37
61 42 38 40 42 43 37 38 37 41 49 49 62 64 63 65 66 71 83 86 75 39 63 51 48 55 60 56 57 56 62 64 44 40 40 41 46 48 45 42 28 33 36
74 67 47 60 51 47 43 34 37 37 45 49 62 58 42 44 49 48 53 70 87 65 59 53 57 53 55 57 68 70 66 51 39 35 33 38 44 43 41 32 31 33 37
72 57 57 51 44 37 23 28 38 42 48 50 50 53 56 68 60 59 61 54 53 64 69 60 46 52 55 61 64 62 55 39 26 27 30 37 41 38 33 27 32 35 37
55 52 52 36 46 32 30 34 45 57 55 51 52 56 56 60 65 68 67 60 54 46 51 60 54 52 51 49 51 47 38 28 23 25 34 42 39 37 24 28 35 39 34
42 42 33 43 33 24 30 52 51 54 63 59 56 64 64 62 60 62 61 66 75 53 36 34 44 46 43 46 42 40 32 22 26 31 37 39 34 29 23 30 31 31 32
26 48 11 13 28 22 34 30 42 53 59 60 56 59 62 66 65 63 60 71 49 55 40 47 51 54 55 54 45 32 23 27 26 30 35 30 23 17 21 27 31 33 34
28 21 26 12 14 12 20 31 48 54 59 59 55 55 59 57 60 54 43 47 25 14 23 29 44 48 55 52 41 26 23 21 23 26 23 17 13 17 22 29 32 30 33
9 8 22 24 26 24 33 39 45 52 53 55 55 53 55 62 60 51 47 44 47 47 58 56 46 60 52 42 23 15 21 13 20 16 9 10 17 22 28 32 34 31 34
30 40 46 43 43 39 39 40 42 44 45 46 44 52 52 54 44 48 37 34 40 59 40 57 56 45 42 27 18 18 19 13 5 8 13 22 21 26 27 29 31 32 34
38 34 38 41 39 36 37 38 38 36 37 39 39 38 43 41 38 36 29 25 35 35 32 24 34 28 30 24 14 12 8 3 3 8 21 25 27 29 27 33 29 27 31
38 33 32 32 33 35 34 34 37 35 33 32 34 32 31 31 30 25 22 20 29 33 31 31 42 37 28 19 17 16 7 17 8 8 14 21 29 32 34 37 28 25 28
36 28 26 28 31 33 32 29 30 29 29 29 27 21 10 1 6 11 14 15 22 30 33 46 46 36 32 27 22 20 14 14 6 10 8 15 28 33 37 39 26 21 25
29 25 27 25 26 23 22 23 24 23 23 22 19 14 10 11 19 26 30 38 43 48 51 51 46 39 25 25 17 9 10 11 8 9 3 15 26 36 37 31 19 23 22
23 20 17 22 23 23 24 21 20 22 22 20 17 16 17 13 21 27 32 40 39 47 45 45 40 36 22 19 6 12 16 33 19 4 6 11 14 32 25 18 21 20 21
15 15 20 23 25 28 25 24 20 20 21 20 22 20 23 26 31 27 29 39 38 34 42 39 26 38 26 23 18 18 17 31 19 3 10 3 16 16 14 22 20 21 22
15 18 21 22 24 26 25 24 21 22 21 18 20 15 15 25 27 28 32 27 23 22 30 39 35 29 18 15 15 15 13 13 15 3 3 5 13 16 19 17 25 23 26
15 18 21 21 25 38 37 37 43 36 37 27 23 28 28 36 35 24 27 14 25 35 32 28 21 16 6 14 16 11 12 15 10 5 15 10 3 19 18 25 27 28 28
24 33 36 30 35 34 28 26 32 33 28 19 16 14 14 10 13 24 27 24 31 34 27 21 20 23 19 5 14 15 23 23 9 5 8 12 10 17 24 30 27 27 29
43 40 41 38 38 36 40 26 23 22 27 27 23 31 30 34 20 20 36 31 29 33 27 30 30 25 29 20 9 22 31 27 20 6 8 10 17 15 17 28 26 28 29
Wind_Direction_500mb
237 250 253 251 248 263 277 288 268 270 276 281 271 269 262 260 253 252 260 268 253 247 250 256 248 231 237 242 247 247 249 254 264 271 281 291 303 312 317 320 318 316 309
238 258 251 251 253 265 260 255 259 251 254 257 266 270 270 261 256 260 254 262 258 253 251 252 251 235 235 240 245 245 248 253 261 269 279 289 301 309 313 315 317 314 304
228 252 265 251 255 251 263 268 266 256 257 253 251 262 268 270 264 258 253 258 263 258 252 249 248 240 237 239 242 245 246 251 259 268 278 287 297 305 310 313 314 308 305
251 262 249 267 262 263 262 273 269 275 264 255 263 256 264 264 269 265 262 251 262 260 248 243 242 238 238 239 239 244 246 248 254 266 275 286 294 303 308 312 312 307 307
261 245 233 253 259 254 253 269 263 271 272 270 273 262 260 256 258 259 257 257 249 249 252 239 236 234 234 236 238 244 244 249 262 273 278 286 294 302 307 310 310 303 292
253 253 239 260 259 267 270 256 269 274 276 280 279 276 279 266 259 264 253 258 256 242 237 232 226 236 239 238 237 239 238 253 256 284 281 285 292 302 308 310 303 296 296
250 237 241 241 254 266 277 273 269 278 280 283 285 282 282 284 281 265 261 253 252 235 230 217 250 237 234 233 230 227 229 238 258 266 276 284 295 303 306 306 297 297 295
243 231 235 244 245 260 260 267 282 284 281 278 283 284 287 288 286 289 267 259 245 274 256 238 218 208 223 223 228 222 232 243 245 259 272 284 300 301 303 300 299 294 297
237 240 240 248 247 247 261 269 279 281 289 291 290 280 280 278 293 300 282 274 259 250 234 226 225 229 237 232 223 227 236 233 247 262 280 296 296 303 298 301 302 303 305
231 230 236 241 246 251 263 292 288 287 289 291 291 287 278 274 276 287 285 285 263 245 230 227 229 237 237 226 222 221 225 236 241 268 288 294 299 297 302 304 302 307 312
254 276 281 252 253 249 264 302 308 298 296 291 294 293 293 284 277 273 283 274 271 238 199 220 219 230 216 213 214 221 225 234 256 279 293 297 297 300 303 296 305 311 313
265 250 218 235 246 258 271 286 281 289 287 291 291 289 289 290 284 277 278 283 247 243 220 187 193 190 192 209 208 214 226 244 273 283 284 287 294 303 306 307 314 316 310
325 37 195 289 293 303 286 272 286 284 289 292 291 289 287 287 288 283 277 286 280 222 200 179 183 195 200 206 197 206 237 255 267 281 289 295 298 303 305 314 317 315 315
293 30 349 339 344 326 297 277 276 281 277 280 283 284 283 283 279 279 281 271 259 320 195 188 205 220 207 216 216 214 240 262 266 284 296 299 304 305 316 320 323 320 320
32 307 317 319 305 307 298 303 301 295 288 288 286 280 282 284 282 283 283 270 232 211 236 227 237 220 215 208 204 228 248 255 287 312 321 333 326 317 317 323 324 325 326
315 292 310 314 312 310 309 309 302 299 300 294 286 285 289 290 290 285 292 274 244 234 199 219 219 221 204 190 182 229 250 278 246 37 12 349 335 332 326 327 330 333 333
329 334 319 311 312 315 318 315 312 310 309 306 303 297 292 287 287 288 283 259 227 213 204 165 204 186 176 179 182 228 222 249 131 19 4 3 354 350 346 344 339 343 345
320 315 313 315 319 323 323 330 331 328 332 331 324 311 299 290 285 280 271 252 225 223 217 180 158 153 151 181 171 155 154 260 310 330 329 2 348 347 348 345 344 346 353
310 322 327 332 334 336 338 350 341 348 354 354 349 343 337 320 173 164 160 163 144 136 151 152 141 132 152 149 133 102 145 206 286 257 293 342 339 336 343 343 346 351 359
331 343 342 354 359 1 14 16 16 22 19 23 33 39 60 97 118 122 126 127 136 130 131 127 127 123 130 130 115 116 124 163 171 190 25 349 340 334 342 342 359 8 2
348 355 11 26 31 36 37 32 32 35 34 38 43 58 61 91 113 109 119 119 125 128 122 119 124 123 127 143 143 173 170 167 152 135 333 44 304 319 339 356 29 30 17
16 32 43 42 44 53 46 41 33 33 39 59 73 84 97 101 105 109 121 119 110 116 119 128 128 115 119 129 141 117 144 186 149 45 334 235 305 333 7 24 43 37 32
42 48 51 47 52 52 37 40 42 49 56 60 62 71 108 114 116 88 75 93 107 121 118 119 123 116 133 147 163 135 119 137 143 81 261 78 12 22 37 47 63 48 64
60 54 49 52 65 80 60 53 60 79 84 69 65 66 98 109 112 88 80 84 88 93 96 87 93 110 141 164 158 152 181 208 162 12 165 128 25 37 51 78 68 65 65
63 62 58 74 78 73 62 66 65 57 63 79 84 82 88 47 88 105 106 112 93 82 83 83 79 65 47 186 162 140 151 168 151 95 144 152 155 66 87 83 79 76 76
75 74 70 68 60 63 61 65 70 76 65 76 69 55 55 71 129 123 112 114 110 93 83 88 79 52 23 22 190 205 163 141 154 170 134 137 153 121 82 88 87 85 87
Wind_Speed_850mb
24 40 31 35 27 29 29 32 28 39 39 45 41 38 48 51 52 47 49 49 49 49 46 43 43 49 46 41 36 32 31 29 28 29 28 29 32 36 39 44 51 53 38
37 30 48 43 37 37 36 43 44 43 35 40 46 50 51 53 56 54 54 55 56 56 54 48 49 53 51 44 39 36 35 32 31 33 31 31 34 38 42 50 55 49 38
25 36 37 42 42 38 44 40 46 53 50 42 46 47 49 54 62 61 59 56 63 60 58 54 53 55 54 47 44 41 40 36 34 34 34 34 36 40 46 54 54 38 32
55 35 37 30 34 39 39 40 46 46 50 63 67 65 52 59 55 61 61 65 61 66 66 61 58 58 57 52 47 46 44 40 36 36 36 36 38 43 51 56 49 35 34
44 24 23 28 35 34 31 39 42 41 48 53 53 65 69 66 64 62 71 71 70 77 76 71 64 59 61 57 50 49 43 42 39 38 34 38 41 46 53 53 41 34 38
51 39 33 35 49 46 46 44 49 44 47 50 55 59 64 77 78 74 70 64 83 81 75 64 56 58 64 60 50 49 40 47 47 40 39 40 43 49 53 47 33 38 40
40 42 38 37 47 48 41 41 50 45 50 53 56 62 71 73 75 83 79 69 45 83 69 55 68 47 75 59 49 48 46 53 47 39 41 42 46 50 50 41 32 36 37
61 42 38 40 42 43 37 38 37 41 49 49 62 64 63 65 66 71 83 86 75 39 63 51 48 55 60 56 57 56 62 64 44 40 40 41 46 48 45 42 28 33 36
74 67 47 60 51 47 43 34 37 37 45 49 62 58 42 44 49 48 53 70 87 65 59 53 57 53 55 57 68 70 66 51 39 35 33 38 44 43 41 32 31 33 37
72 57 57 51 44 37 23 28 38 42 48 50 50 53 56 68 60 59 61 54 53 64 69 60 46 52 55 61 64 62 55 39 26 27 30 37 41 38 33 27 32 35 37
55 52 52 36 46 32 30 34 45 57 55 51 52 56 56 60 65 68 67 60 54 46 51 60 54 52 51 49 51 47 38 28 23 25 34 42 39 37 24 28 35 39 34
42 42 33 43 33 24 30 52 51 54 63 59 56 64 64 62 60 62 61 66 75 53 36 34 44 46 43 46 42 40 32 22 26 31 37 39 34 29 23 30 31 31 32
26 48 11 13 28 22 34 30 42 53 59 60 56 59 62 66 65 63 60 71 49 55 40 47 51 54 55 54 45 32 23 27 26 30 35 30 23 17 21 27 31 33 34
28 21 26 12 14 12 20 31 48 54 59 59 55 55 59 57 60 54 43 47 25 14 23 29 44 48 55 52 41 26 23 21 23 26 23 17 13 17 22 29 32 30 33
9 8 22 24 26 24 33 39 45 52 53 55 55 53 55 62 60 51 47 44 47 47 58 56 46 60 52 42 23 15 21 13 20 16 9 10 17 22 28 32 34 31 34
30 40 46 43 43 39 39 40 42 44 45 46 44 52 52 54 44 48 37 34 40 59 40 57 56 45 42 27 18 18 19 13 5 8 13 22 21 26 27 29 31 32 34
38 34 38 41 39 36 37 38 38 36 37 39 39 38 43 41 38 36 29 25 35 35 32 24 34 28 30 24 14 12 8 3 3 8 21 25 27 29 27 33 29 27 31
38 33 32 32 33 35 34 34 37 35 33 32 34 32 31 31 30 25 22 20 29 33 31 31 42 37 28 19 17 16 7 17 8 8 14 21 29 32 34 37 28 25 28
36 28 26 28 31 33 32 29 30 29 29 29 27 21 10 1 6 11 14 15 22 30 33 46 46 36 32 27 22 20 14 14 6 10 8 15 28 33 37 39 26 21 25
29 25 27 25 26 23 22 23 24 23 23 22 19 14 10 11 19 26 30 38 43 48 51 51 46 39 25 25 17 9 10 11 8 9 3 15 26 36 37 31 19 23 22
23 20 17 22 23 23 24 21 20 22 22 20 17 16 17 13 21 27 32 40 39 47 45 45 40 36 22 19 6 12 16 33 19 4 6 11 14 32 25 18 21 20 21
15 15 20 23 25 28 25 24 20 20 21 20 22 20 23 26 31 27 29 39 38 34 42 39 26 38 26 23 18 18 17 31 19 3 10 3 16 16 14 22 20 21 22
15 18 21 22 24 26 25 24 21 22 21 18 20 15 15 25 27 28 32 27 23 22 30 39 35 29 18 15 15 15 13 13 15 3 3 5 13 16 19 17 25 23 26
15 18 21 21 25 38 37 37 43 36 37 27 23 28 28 36 35 24 27 14 25 35 32 28 21 16 6 14 16 11 12 15 10 5 15 10 3 19 18 25 27 28 28
24 33 36 30 35 34 28 26 32 33 28 19 16 14 14 10 13 24 27 24 31 34 27 21 20 23 19 5 14 15 23 23 9 5 8 12 10 17 24 30 27 27 29
43 40 41 38 38 36 40 26 23 22 27 27 23 31 30 34 20 20 36 31 29 33 27 30 30 25 29 20 9 22 31 27 20 6 8 10 17 15 17 28 26 28 29
Wind_Direction_850mb
237 250 253 251 248 263 277 288 268 270 276 281 271 269 262 260 253 252 260 268 253 247 250 256 248 231 237 242 247 247 249 254 264 271 281 291 303 312 317 320 318 316 309
238 258 251 251 253 265 260 255 259 251 254 257 266 270 270 261 256 260 254 262 258 253 251 252 251 235 235 240 245 245 248 253 261 269 279 289 301 309 313 315 317 314 304
228 252 265 251 255 251 263 268 266 256 257 253 251 262 268 270 264 258 253 258 263 258 252 249 248 240 237 239 242 245 246 251 259 268 278 287 297 305 310 313 314 308 305
251 262 249 267 262 263 262 273 269 275 264 255 263 256 264 264 269 265 262 251 262 260 248 243 242 238 238 239 239 244 246 248 254 266 275 286 294 303 308 312 312 307 307
261 245 233 253 259 254 253 269 263 271 272 270 273 262 260 256 258 259 257 257 249 249 252 239 236 234 234 236 238 244 244 249 262 273 278 286 294 302 307 310 310 303 292
253 253 239 260 259 267 270 256 269 274 276 280 279 276 279 266 259 264 253 258 256 242 237 232 226 236 239 238 237 239 238 253 256 284 281 285 292 302 308 310 303 296 296
250 237 241 241 254 266 277 273 269 278 280 283 285 282 282 284 281 265 261 253 252 235 230 217 250 237 234 233 230 227 229 238 258 266 276 284 295 303 306 306 297 297 295
243 231 235 244 245 260 260 267 282 284 281 278 283 284 287 288 286 289 267 259 245 274 256 238 218 208 223 223 228 222 232 243 245 259 272 284 300 301 303 300 299 294 297
237 240 240 248 247 247 261 269 279 281 289 291 290 280 280 278 293 300 282 274 259 250 234 226 225 229 237 232 223 227 236 233 247 262 280 296 296 303 298 301 302 303 305
231 230 236 241 246 251 263 292 288 287 289 291 291 287 278 274 276 287 285 285 263 245 230 227 229 237 237 226 222 221 225 236 241 268 288 294 299 297 302 304 302 307 312
254 276 281 252 253 249 264 302 308 298 296 291 294 293 293 284 277 273 283 274 271 238 199 220 219 230 216 213 214 221 225 234 256 279 293 297 297 300 303 296 305 311 313
265 250 218 235 246 258 271 286 281 289 287 291 291 289 289 290 284 277 278 283 247 243 220 187 193 190 192 209 208 214 226 244 273 283 284 287 294 303 306 307 314 316 310
325 37 195 289 293 303 286 272 286 284 289 292 291 289 287 287 288 283 277 286 280 222 200 179 183 195 200 206 197 206 237 255 267 281 289 295 298 303 305 314 317 315 315
293 30 349 339 344 326 297 277 276 281 277 280 283 284 283 283 279 279 281 271 259 320 195 188 205 220 207 216 216 214 240 262 266 284 296 299 304 305 316 320 323 320 320
32 307 317 319 305 307 298 303 301 295 288 288 286 280 282 284 282 283 283 270 232 211 236 227 237 220 215 208 204 228 248 255 287 312 321 333 326 317 317 323 324 325 326
315 292 310 314 312 310 309 309 302 299 300 294 286 285 289 290 290 285 292 274 244 234 199 219 219 221 204 190 182 229 250 278 246 37 12 349 335 332 326 327 330 333 333
329 334 319 311 312 315 318 315 312 310 309 306 303 297 292 287 287 288 283 259 227 213 204 165 204 186 176 179 182 228 222 249 131 19 4 3 354 350 346 344 339 343 345
320 315 313 315 319 323 323 330 331 328 332 331 324 311 299 290 285 280 271 252 225 223 217 180 158 153 151 181 171 155 154 260 310 330 329 2 348 347 348 345 344 346 353
310 322 327 332 334 336 338 350 341 348 354 354 349 343 337 320 173 164 160 163 144 136 151 152 141 132 152 149 133 102 145 206 286 257 293 342 339 336 343 343 346 351 359
331 343 342 354 359 1 14 16 16 22 19 23 33 39 60 97 118 122 126 127 136 130 131 127 127 123 130 130 115 116 124 163 171 190 25 349 340 334 342 342 359 8 2
348 355 11 26 31 36 37 32 32 35 34 38 43 58 61 91 113 109 119 119 125 128 122 119 124 123 127 143 143 173 170 167 152 135 333 44 304 319 339 356 29 30 17
16 32 43 42 44 53 46 41 33 33 39 59 73 84 97 101 105 109 121 119 110 116 119 128 128 115 119 129 141 117 144 186 149 45 334 235 305 333 7 24 43 37 32
42 48 51 47 52 52 37 40 42 49 56 60 62 71 108 114 116 88 75 93 107 121 118 119 123 116 133 147 163 135 119 137 143 81 261 78 12 22 37 47 63 48 64
60 54 49 52 65 80 60 53 60 79 84 69 65 66 98 109 112 88 80 84 88 93 96 87 93 110 141 164 158 152 181 208 162 12 165 128 25 37 51 78 68 65 65
63 62 58 74 78 73 62 66 65 57 63 79 84 82 88 47 88 105 106 112 93 82 83 83 79 65 47 186 162 140 151 168 151 95 144 152 155 66 87 83 79 76 76
75 74 70 68 60 63 61 65 70 76 65 76 69 55 55 71 129 123 112 114 110 93 83 88 79 52 23 22 190 205 163 141 154 170 134 137 153 121 82 88 87 85 87